Home > Weather > Hoofddorp > Past weeks

Flag for Netherlands Weather for the Past 2 Weeks in Hoofddorp, Netherlands

Now
34 °F

Rain. Partly sunny.


Feels Like: 26 °F
Forecast: 35 / 40 °F
Wind: 9 mph from Northeast

Location: Amsterdam Schiphol Airport

Current Time: Feb 14, 2016 at 1:44:13 PM

Latest Report: Feb 14, 2016 at 12:55 PM


Visibility: 2 mi

Pressure: 29.27 "Hg

Humidity: 100%

Dew point: 34 °F

Location of HoofddorpLocation

Historic Weather in Hoofddorp — Graph

°F

Hoofddorp Temperature Yesterday

Maximum temperature yesterday: 39 °F (at 12:55 PM)
Minimum temperature yesterday: 28 °F (at 3:55 AM)
Average temperature yesterday: 35 °F

High & Low Weather Summary for the Past Weeks

 TemperatureHumidityPressure
High54 °F (Feb 1, 8:25 AM)100% (Jan 31, 4:55 PM)30.27 "Hg (Jan 31, 4:55 PM)
Low28 °F (Feb 13, 3:55 AM)57% (Jan 30, 8:55 PM)28.94 "Hg (Feb 9, 3:25 PM)
Average44 °F82%29.60 "Hg
* Reported Jan 30 12:25 PM — Feb 14 12:25 PM, Hoofddorp, Weather by CustomWeather, © 2016

Note: Actual official high and low records may vary slightly from our data, if they occured in-between our weather recording intervals... More about our weather records

Advertising

Hoofddorp Weather History for the Previous 24 Hours

 ConditionsComfort  
Time TempWeatherWind HumidityBarometerVisibility
12:25 PM
Sun, Feb 14
36 °FLight rain. Mostly cloudy.13 mph93%29.24 "Hg3 mi
11:55 AM37 °FDrizzle. Broken clouds.14 mph93%29.24 "Hg4 mi
11:25 AM37 °FDrizzle. Broken clouds.13 mph93%29.24 "Hg4 mi
10:55 AM37 °FDrizzle. Broken clouds.15 mph87%29.21 "Hg4 mi
10:25 AM37 °FDrizzle. Broken clouds.13 mph93%29.21 "Hg4 mi
9:55 AM37 °FDrizzle. Broken clouds.13 mph87%29.18 "Hg4 mi
9:25 AM37 °FDrizzle. Partly sunny.15 mph87%29.18 "Hg4 mi
8:25 AM36 °FDrizzle. Partly sunny.15 mph93%29.15 "Hg4 mi
7:55 AM36 °FPassing clouds.13 mph93%29.15 "Hg3 mi
7:25 AM36 °FLight rain. Mostly cloudy.14 mph93%29.15 "Hg3 mi
6:55 AM36 °FLight rain. Partly cloudy.13 mph93%29.15 "Hg3 mi
6:25 AM36 °FLight rain. Partly cloudy.13 mph93%29.12 "Hg3 mi
5:55 AM36 °FPartly cloudy.15 mph93%29.12 "Hg3 mi
4:55 AM36 °FPassing clouds.14 mph93%29.12 "Hg3 mi
4:25 AM36 °FPartly cloudy.14 mph93%29.12 "Hg4 mi
3:55 AM36 °FPartly cloudy.14 mph93%29.12 "Hg4 mi
3:25 AM36 °FPartly cloudy.14 mph93%29.09 "Hg3 mi
2:55 AM36 °FPartly cloudy.16 mph93%29.09 "Hg4 mi
2:25 AM37 °FPartly cloudy.14 mph87%29.09 "Hg4 mi
1:55 AM37 °FPartly cloudy.15 mph87%29.09 "Hg4 mi
1:25 AM37 °FLight rain. Partly cloudy.17 mph87%29.09 "Hg3 mi
12:55 AM37 °FLight rain. Partly cloudy.17 mph87%29.09 "Hg5 mi
12:25 AM37 °FPartly cloudy.17 mph87%29.09 "Hg5 mi
11:55 PM
Sat, Feb 13
37 °FPartly cloudy.17 mph93%29.09 "Hg5 mi
11:25 PM37 °FPartly cloudy.17 mph93%29.09 "Hg6 mi
10:55 PM37 °FPassing clouds.16 mph93%29.09 "Hg6 mi
9:55 PM37 °FPassing clouds.18 mph93%29.09 "Hg5 mi
9:25 PM37 °FPassing clouds.17 mph93%29.09 "Hg5 mi
8:55 PM37 °FPassing clouds.15 mph93%29.09 "Hg5 mi
8:25 PM37 °FPassing clouds.14 mph93%29.09 "Hg5 mi
7:55 PM37 °FPassing clouds.15 mph87%29.12 "Hg6 mi
7:25 PM37 °FPassing clouds.16 mph87%29.12 "Hg6 mi
6:55 PM37 °FPassing clouds.16 mph87%29.12 "Hg6 mi
6:25 PM37 °FPassing clouds.13 mph87%29.12 "HgN/A
5:55 PM37 °FPassing clouds.14 mph87%29.12 "HgN/A
5:25 PM37 °FPassing clouds.13 mph87%29.12 "HgN/A
4:55 PM37 °FPassing clouds.15 mph87%29.12 "HgN/A
4:25 PM37 °FPassing clouds.15 mph87%29.12 "HgN/A
3:55 PM37 °FPassing clouds.16 mph87%29.12 "HgN/A
3:25 PM37 °FPassing clouds.15 mph87%29.15 "HgN/A
2:55 PM37 °FPassing clouds.13 mph87%29.15 "HgN/A
2:25 PM37 °FPassing clouds.15 mph81%29.15 "HgN/A
1:55 PM37 °FPassing clouds.15 mph87%29.18 "HgN/A
1:25 PM37 °FPassing clouds.16 mph81%29.18 "HgN/A
Weather by CustomWeather, © 2016

See weather overviewHow to use our weather pages